Location: Jefferson
(30.9666°N, 81.7901°W)
Time: 13:23:22
(UTC+00:00)

ARIANE 6 FM1 Upper Stage - Visible Passes

Search period start: 20 September 2024 00:00
Search period end: 30 September 2024 00:00
Orbit: 566 x 594 km, 62.0° (Epoch: 19 September)

Date Brightness Start Highest point End Pass type
(mag) Time Alt. Az. Time Alt. Az. Time Alt. Az.
20 Sep 2.7 00:32:40 10° SSW 00:36:48 55° ESE 00:40:50 11° NE visible
20 Sep 5.7 02:14:25 10° WNW 02:16:26 13° NW 02:17:18 12° NW visible
20 Sep 5.7 09:02:35 10° N 09:05:15 16° NE 09:07:56 10° E visible
20 Sep 3.1 10:40:38 10° NW 10:44:48 45° WSW 10:48:57 10° S visible
21 Sep 2.8 00:37:13 10° SSW 00:41:27 81° WNW 00:45:45 10° NNE visible
21 Sep 4.9 09:06:31 10° N 09:10:09 25° NE 09:13:46 10° ESE visible
21 Sep 3.8 10:45:47 10° WNW 10:49:23 25° WSW 10:52:58 10° S visible
22 Sep 3.9 00:42:07 10° SW 00:46:10 44° NW 00:50:18 10° NNE visible
22 Sep 3.9 09:12:49 24° N 09:14:56 42° NE 09:19:04 10° SE visible
22 Sep 4.5 10:51:31 10° WNW 10:53:54 15° WSW 10:56:17 10° SW visible
23 Sep 4.9 00:47:21 10° WSW 00:50:57 26° NW 00:54:35 10° N visible
23 Sep 3.0 09:20:05 67° ESE 09:20:05 67° ESE 09:23:59 10° SE visible
24 Sep 5.6 00:53:05 10° W 00:55:48 16° NW 00:58:31 10° N visible
24 Sep 4.6 09:27:14 19° SSE 09:27:14 19° SSE 09:28:34 10° SSE visible
28 Sep 5.7 23:37:54 10° WNW 23:39:49 13° NW 23:41:45 10° NNW visible
